Theta_e
304 304 304 305 305 305 305 305 305 305 306 306 306 306 307 307 307 307 306 306 306 305 305 304 304 303 302 301 300 299 298 298 297 296 295 295 295 295 295 296 296 296
304 304 304 304 304 304 304 305 304 304 305 305 305 305 305 306 306 306 306 306 306 305 305 304 304 303 302 301 300 300 299 298 297 296 295 295 295 295 295 295 296 296
304 304 304 304 304 304 304 304 304 304 304 304 304 305 305 305 305 305 305 305 305 305 305 305 304 304 303 302 301 300 299 299 298 297 296 295 295 294 295 295 295 295
303 303 303 303 303 303 303 303 303 304 304 303 304 304 304 304 304 304 304 304 304 304 304 304 304 304 303 302 301 300 299 299 298 297 296 295 295 294 294 294 295 295
302 302 302 302 302 302 302 303 303 303 304 304 304 303 303 304 304 304 304 304 303 303 303 303 303 303 303 302 301 300 300 299 298 297 296 295 295 294 294 294 294 294
302 302 301 301 301 301 302 302 302 303 303 303 304 303 303 303 303 303 303 303 303 303 303 303 302 302 302 302 301 301 300 299 298 298 297 295 294 294 294 294 294 294
303 303 302 301 300 300 301 301 302 302 302 302 302 302 303 303 303 303 303 303 303 303 303 303 302 302 302 302 301 301 300 299 299 298 297 296 295 294 293 293 294 294
304 304 304 303 302 300 300 300 301 301 301 301 302 302 302 302 302 302 302 302 302 302 302 302 302 302 302 302 302 301 301 300 299 299 298 296 295 294 293 293 293 293
303 303 303 303 303 302 301 300 300 300 300 300 300 301 301 301 301 301 301 301 301 301 301 301 301 301 301 302 302 302 301 300 300 300 299 298 296 295 294 293 293 293
301 302 302 302 303 303 302 301 300 300 300 300 299 299 299 300 300 300 300 300 300 300 300 300 301 301 301 301 302 302 302 301 301 300 300 299 298 297 295 294 293 293
298 299 300 301 302 302 302 302 301 301 300 300 299 299 299 299 299 299 299 299 300 300 300 300 300 300 300 300 301 301 301 302 302 301 300 299 299 298 296 295 294 293
297 297 297 298 300 301 301 301 301 301 301 301 300 299 299 298 298 298 298 298 299 299 299 299 299 299 299 299 300 300 300 300 301 301 301 300 299 298 297 297 295 294
295 295 296 296 297 299 300 301 301 301 301 301 300 300 299 298 298 298 298 298 298 298 298 298 298 298 298 298 298 298 299 299 299 300 300 300 299 299 298 297 296 295
292 293 294 295 295 296 298 299 301 301 301 301 301 300 299 298 297 297 297 297 297 297 297 297 297 297 297 297 297 297 297 298 298 299 299 299 299 299 298 297 297 295
291 292 292 293 294 295 296 297 298 300 300 300 300 300 300 299 298 297 296 296 296 296 296 296 296 296 296 296 296 297 297 297 297 298 298 298 298 298 297 297 297 296
291 291 291 292 292 293 294 295 295 297 298 300 299 299 299 299 299 298 296 296 295 295 295 295 295 296 296 296 296 296 296 296 296 297 297 297 298 297 297 296 296 296
291 291 291 291 291 292 292 293 294 295 296 298 299 299 297 297 297 297 296 295 294 294 294 294 295 295 295 295 296 296 295 295 295 296 296 296 297 297 297 296 296 295
290 290 290 291 291 291 291 292 292 293 294 296 297 298 297 296 295 295 295 294 293 293 293 293 294 294 294 294 294 295 295 294 294 294 295 295 296 296 296 296 295 295
288 289 289 290 290 290 291 291 291 292 293 294 295 297 297 296 295 294 293 293 292 292 292 293 293 293 293 293 294 294 294 293 293 293 294 294 294 295 296 295 295 294
287 287 287 288 288 289 290 290 290 290 291 292 293 295 296 297 295 294 293 292 292 292 292 292 292 292 292 292 293 293 292 293 292 292 292 293 293 294 294 295 294 294
287 286 286 286 286 287 288 289 290 290 290 290 291 292 294 296 296 295 293 292 291 291 291 291 291 291 291 291 292 291 291 291 291 291 291 292 292 293 293 293 294 293
286 286 286 286 285 285 286 287 288 289 289 290 290 291 292 294 295 295 294 292 291 291 290 291 291 291 290 291 291 290 290 290 290 290 291 291 291 292 292 292 292 292
285 285 285 285 285 285 285 285 286 287 288 289 289 290 291 292 293 294 295 293 292 291 290 290 290 290 290 290 290 290 290 289 289 290 290 290 291 291 291 291 291 291
285 285 285 285 285 285 285 285 285 285 286 287 288 288 289 290 291 293 294 294 293 292 290 290 290 290 290 289 289 289 289 289 289 289 289 290 290 290 290 290 290 290
285 285 285 285 285 285 285 285 285 285 285 285 286 287 288 289 290 291 293 294 294 293 292 290 289 289 289 289 289 289 288 288 288 288 288 289 289 289 289 288 288 288
284 284 284 284 284 285 285 285 285 285 284 285 285 286 287 288 288 289 291 293 294 294 293 292 290 289 288 288 288 288 288 287 287 288 288 288 288 288 288 288 288 287
Wind_Speed
27 29 31 33 34 35 37 38 38 39 39 38 38 38 38 40 42 45 47 47 47 48 47 48 49 50 50 50 49 47 46 46 45 45 45 45 45 44 42 41 39 38
26 28 30 32 33 35 37 38 39 39 39 38 38 38 37 38 40 42 43 45 46 46 47 48 48 49 49 50 49 48 47 47 47 46 46 47 46 45 44 43 41 40
25 27 29 30 32 34 36 38 39 39 39 39 39 38 38 38 39 40 42 43 45 45 46 47 47 48 48 49 49 49 48 48 48 47 48 47 47 47 46 44 43 42
22 25 27 30 31 33 35 36 38 38 39 40 40 39 39 39 39 40 41 42 43 44 45 46 47 47 48 49 49 49 49 49 48 48 48 49 48 48 47 46 45 44
19 22 25 28 30 32 34 36 37 37 37 38 39 39 40 41 41 41 41 41 42 43 44 45 46 47 47 48 49 50 50 50 50 50 50 50 50 49 49 48 47 46
18 18 20 23 26 29 32 34 35 37 37 38 38 39 40 41 41 42 42 42 42 42 43 43 44 45 46 48 49 50 50 51 51 51 51 51 51 51 51 50 49 48
21 20 19 19 21 24 28 30 32 34 36 37 39 40 40 41 42 43 43 43 43 43 43 43 44 44 44 46 47 49 50 51 52 52 52 52 52 52 53 52 51 50
24 24 22 21 21 21 23 25 28 30 32 35 38 39 40 42 43 43 44 44 44 45 45 45 45 44 43 44 45 47 49 51 52 52 53 53 54 54 54 54 53 52
26 26 25 25 24 23 22 23 25 26 28 31 34 36 38 40 42 43 44 45 46 46 47 47 47 46 45 44 45 46 48 50 51 52 53 54 55 56 56 56 55 54
27 27 27 27 26 26 25 24 24 24 26 29 31 34 36 38 40 42 44 45 47 48 48 49 49 49 48 47 47 47 48 49 50 52 53 55 56 56 56 56 57 56
27 28 28 28 28 28 27 27 26 25 25 27 29 32 35 37 39 41 43 45 47 48 49 50 51 51 51 50 49 49 49 49 50 51 53 54 56 56 56 56 57 57
28 29 30 30 30 30 29 29 28 27 27 27 28 31 34 36 39 41 43 44 46 47 49 50 52 52 53 52 51 51 51 51 51 52 52 53 55 56 56 57 57 57
30 30 30 31 31 31 31 30 30 29 29 30 29 29 31 34 37 40 42 43 45 47 48 50 51 52 53 54 53 53 52 53 53 53 53 54 54 55 56 57 58 58
33 32 30 30 30 31 31 31 31 31 31 31 31 32 32 32 34 37 40 42 44 46 48 49 50 52 53 54 55 54 54 54 54 54 54 55 55 56 57 58 58 59
35 34 32 31 29 29 30 30 31 31 31 31 31 33 34 34 33 34 37 40 43 45 47 48 50 52 53 54 55 55 55 55 54 54 55 56 57 58 59 60 60 60
35 35 34 34 32 31 30 29 30 31 32 32 31 31 33 35 35 35 36 38 42 44 46 48 50 51 52 53 54 55 55 55 55 55 55 56 58 60 61 62 61 61
35 35 35 35 35 34 33 31 30 31 31 32 32 31 31 32 34 35 35 36 40 43 45 48 50 50 50 51 52 53 54 54 55 55 56 57 58 61 62 62 62 62
37 36 36 35 35 35 35 34 32 31 31 32 32 32 30 30 31 33 34 34 38 41 43 46 48 49 50 51 51 52 53 53 54 55 56 57 58 60 61 62 63 63
40 39 38 37 35 35 35 35 34 32 31 32 32 32 31 30 30 31 32 33 36 39 42 44 46 48 49 50 50 51 52 52 53 55 56 57 57 59 60 62 63 63
41 41 41 40 38 37 36 35 35 34 33 32 32 33 32 31 30 29 30 31 33 36 39 43 45 46 47 49 49 50 51 51 52 54 55 56 57 58 59 61 62 63
42 43 43 42 42 41 39 38 37 36 35 34 33 33 33 33 31 30 29 30 31 33 36 40 42 43 45 46 47 48 49 50 51 53 54 56 57 58 59 60 61 62
41 43 44 45 45 44 43 41 40 38 37 36 35 35 34 34 34 31 29 29 29 30 34 37 38 40 42 43 44 45 47 49 50 51 53 55 56 57 59 60 60 60
41 42 43 45 46 47 45 44 43 41 39 37 37 36 36 35 36 34 31 29 28 29 32 35 35 35 37 40 42 43 45 47 49 50 51 54 55 57 58 59 60 60
42 43 44 45 47 48 48 46 45 43 41 39 38 38 37 36 36 37 35 32 29 29 30 33 34 33 33 36 39 41 43 45 46 49 50 52 55 56 58 59 59 59
43 44 46 47 48 48 49 49 47 45 43 41 40 39 39 37 37 38 37 34 31 30 29 31 33 33 33 34 35 38 41 43 44 47 50 52 53 56 57 58 58 58
43 45 46 47 49 50 50 50 50 48 45 44 43 41 40 39 39 38 38 36 33 31 30 29 31 32 33 33 34 35 38 41 44 47 49 51 52 54 56 56 56 56
Wind_Direction
282 276 273 272 271 270 269 267 265 263 262 261 260 258 255 253 250 248 246 244 244 243 241 240 238 237 236 235 235 234 234 234 233 233 233 234 234 235 235 236 238 239
291 284 279 276 274 272 271 269 268 266 266 265 264 261 259 256 254 252 250 248 247 246 244 243 241 240 239 237 236 235 234 234 233 233 233 233 234 234 235 236 237 238
297 290 285 280 277 274 272 271 270 268 268 267 266 264 262 260 257 255 253 251 249 248 247 246 244 243 241 240 238 237 236 236 235 234 234 234 234 234 235 235 236 237
301 295 289 284 280 276 273 271 270 270 269 268 267 267 266 264 261 258 256 254 252 251 249 248 247 245 243 241 240 238 238 237 237 236 235 235 234 234 234 234 235 236
307 299 294 290 287 283 279 276 274 272 271 270 269 268 267 265 264 262 261 259 256 254 252 250 249 247 245 244 241 240 238 237 237 236 236 235 235 234 234 233 234 235
326 311 300 294 290 287 284 281 279 277 274 273 271 270 268 267 266 265 263 262 260 258 256 253 251 249 247 245 243 242 240 239 238 237 236 236 235 234 234 234 234 234
341 331 319 308 298 290 285 283 282 280 278 276 273 271 269 268 267 267 265 264 262 260 258 256 254 251 249 247 245 243 242 240 239 238 237 236 235 234 234 233 234 234
346 340 333 324 315 306 297 291 288 285 283 280 276 274 272 271 269 269 267 266 264 263 261 258 255 252 250 248 246 245 243 241 239 238 238 237 236 235 234 233 233 234
350 345 340 333 326 318 311 305 300 295 290 284 281 278 275 273 272 271 270 268 266 265 262 259 257 254 251 249 247 246 244 242 240 239 238 237 236 235 234 233 233 233
357 353 348 343 336 326 317 310 305 301 297 292 288 284 279 277 275 273 271 270 268 266 263 261 259 256 253 250 248 246 244 243 242 240 239 238 238 237 235 235 234 234
358 358 355 351 345 337 327 317 307 299 296 293 292 289 286 283 279 275 273 271 270 268 266 265 263 259 256 253 250 247 245 243 242 241 240 239 239 238 237 236 236 236
354 356 356 354 350 345 338 329 317 304 295 290 289 289 288 287 284 280 277 274 273 271 268 267 264 261 258 256 253 249 246 244 242 241 241 240 240 239 238 237 237 237
353 353 353 353 352 348 344 338 329 317 304 293 287 284 283 284 284 283 281 279 276 273 270 267 264 262 260 257 254 251 248 246 244 242 241 240 239 239 239 238 237 237
351 350 350 349 348 347 345 342 337 330 319 305 292 283 279 280 281 282 282 281 278 274 271 267 265 262 260 257 255 252 249 247 245 244 243 242 240 238 238 238 237 237
345 345 345 345 344 343 344 343 341 337 330 320 305 290 281 278 278 279 279 278 276 274 271 267 264 262 260 258 255 253 251 249 247 245 244 243 242 240 238 237 237 237
339 339 340 341 341 340 340 341 341 339 336 331 321 305 289 280 276 275 275 276 275 274 270 267 264 262 261 259 257 256 254 252 249 247 245 244 243 242 240 238 237 236
334 334 334 335 335 336 336 336 337 337 336 334 330 321 305 289 280 275 274 276 277 274 270 267 265 263 261 259 258 256 254 253 251 249 246 244 243 243 242 241 238 237
333 332 331 331 330 331 331 332 333 333 333 333 332 328 318 302 289 282 279 278 277 275 271 268 268 266 263 260 259 257 255 253 251 250 248 245 244 244 244 243 241 238
332 331 331 330 329 328 326 327 329 329 330 330 329 328 324 314 302 290 285 282 278 276 273 270 270 268 263 262 261 259 257 254 251 249 248 247 246 245 245 244 243 241
329 329 330 330 329 327 324 323 324 324 326 326 325 324 323 321 314 302 292 286 281 279 275 272 272 269 264 263 262 259 257 256 252 249 248 248 247 246 246 245 245 243
324 326 327 328 328 327 325 323 321 320 320 321 321 320 319 319 317 311 302 293 286 282 278 274 272 269 266 265 263 259 258 256 253 250 248 248 247 246 245 245 246 245
321 322 323 324 325 325 323 322 321 319 318 318 317 316 316 316 315 313 308 299 292 285 280 277 275 271 268 266 264 261 258 255 252 250 248 247 246 246 245 244 244 245
318 318 319 320 321 321 320 319 318 317 316 316 314 312 311 312 312 311 308 303 296 288 282 280 278 275 271 268 264 260 256 253 251 249 249 248 247 246 245 244 244 244
316 316 316 316 315 316 316 316 315 314 313 313 311 310 308 308 308 307 306 304 299 293 287 283 280 277 274 269 265 260 256 253 250 249 249 248 246 245 244 244 243 243
314 313 313 313 312 312 312 312 312 312 311 310 308 306 306 305 304 303 303 303 301 297 292 286 281 278 273 269 266 262 257 253 250 248 247 246 245 244 243 242 242 242
311 311 311 311 310 309 309 308 309 309 309 308 306 304 303 302 302 301 299 299 300 299 294 289 284 280 275 271 268 264 259 254 249 247 247 245 244 243 242 242 241 241